Regional Weather Roundup
Issued by NWS Raleigh/Durham, NC

Home | Current Version | Previous Version | Text Only | Print | Product List | Glossary On
Versions: 1 2 3 4 5 6 7 8 9 10 11 12 13 14 15 16 17 18 19 20 21 22 23 24 25 26 27 28 29
000
ASUS42 KRAH 250710
RWRRAH
NORTH CAROLINA WEATHER ROUNDUP
NATIONAL WEATHER SERVICE RALEIGH NC
300 AM EDT SAT OCT 25 2014

NOTE: "FAIR" INDICATES FEW OR NO CLOUDS BELOW 12,000 FEET WITH NO
SIGNIFICANT WEATHER AND/OR OBSTRUCTIONS TO VISIBILITY.

NCZ001-053-055-056-065-067-250800-
WESTERN NORTH CAROLINA

CITY           SKY/WX    TMP DP  RH WIND       PRES   REMARKS
ASHEVILLE      CLEAR     45  38  76 N7        30.07S
JEFFERSON      CLEAR     49  33  54 CALM      30.05S
MORGANTON      CLEAR     38  38 100 CALM      30.07S
HICKORY        CLEAR     46  42  86 NW7       30.01F
RUTHERFORDTON  CLEAR     44  40  85 N5        30.03S
MOUNT AIRY     CLEAR     48  35  60 CALM      30.03S
BOONE          NOT AVBL
$$

NCZ021-022-025-041-071-084-088-250800-
CENTRAL NORTH CAROLINA

CITY           SKY/WX    TMP DP  RH WIND       PRES   REMARKS
CHARLOTTE      CLEAR     44  42  93 NW7       30.01S
GREENSBORO     CLEAR     44  40  85 CALM      29.99S
WINSTON-SALEM  CLEAR     49  32  52 NW7       30.01S
RALEIGH-DURHAM PTCLDY    45  42  89 CALM      29.98S
FORT BRAGG     CLEAR     46  46  97 CALM      29.97F
FAYETTEVILLE   CLEAR     47  44  90 SW5       29.97F
BURLINGTON     CLEAR     42  37  82 W5        29.99S
LAURINBURG     CLEAR     41  40  96 VRB3      29.98F
$$

NCZ011-015-027-028-043-044-047-080-103-250800-
NORTHEASTERN NORTH CAROLINA

CITY           SKY/WX    TMP DP  RH WIND       PRES   REMARKS
ROCKY MT-WILSO CLEAR     45  43  93 CALM      29.97S FOG
GREENVILLE     HVY RAIN  45  45 100 CALM      29.99S VSB 1/2
WASHINGTON     CLEAR     46  46  98 CALM      29.97F
ELIZABETH CITY CLEAR     53  44  71 W3        29.95F
MANTEO           N/A     49  49  99 CALM      29.95F FOG
CAPE HATTERAS  CLEAR     52  51  97 CALM      29.95F
$$

NCZ078-087-090-091-093-098-101-250800-
SOUTHEASTERN NORTH CAROLINA

CITY           SKY/WX    TMP DP  RH WIND       PRES   REMARKS
LUMBERTON      CLEAR     43  41  93 CALM      29.98F
GOLDSBORO      CLEAR     47  47  98 SE1       29.95F FOG
KINSTON        CLEAR     45  44  95 CALM      29.98S
KENANSVILLE    PTCLDY    43  43  99 CALM      29.98S
NEW BERN       CLEAR     50  47  89 CALM      29.98S
CHERRY POINT   CLEAR     48  45  89 CALM      29.98S
BEAUFORT       PTCLDY    55  51  86 NW6       29.97S
JACKSONVILLE   PTCLDY    50  48  93 CALM      29.97F
WILMINGTON     MOCLDY    50  48  93 S5        29.97F
$$




USA.gov is the U.S. government's official web portal to all federal, state and local government web resources and services.